User: anonymous   Login
Location: Unspecified
(0.0000°N, 0.0000°E)
Time: 20:05:41
(UTC+00:00)
Language:

STARLINK-30158 - Orbit

View from above orbital plane
View from above orbital plane
View from above satellite
View from above satellite

Ground track
Ground track

The orbit is defined by the following mean orbital elements,

1 57438U          26145.47168544 +.00000000 +00000-0 +25850-4 0 00001
2 57438  42.9986 186.3128 0001465 268.6050  91.4634 15.27576962    06
Epoch (UTC): 25 May 2026 11:19:13
Eccentricity: 0.0001465
inclination: 42.9986°
perigee height: 482 km
apogee height: 484 km
right ascension of ascending node: 186.3128°
argument of perigee: 268.6050°
revolutions per day: 15.27576962
mean anomaly at epoch: 91.4634°

The dashed part of the orbit path shows where the satellite is in the earth's shadow,  

DLR